sat.trackr.live / text

‹ back to catalog

STARLINK-30399

NORAD 57951 · 2023-148S

PAYLOAD ACTIVE UNKNOWN

§ Identity

Operator
Country
US
Launch date
2023-09-25
Launch site
AFWTR
Launch vehicle
Mass (kg)
RCS (m²)

Purposes: comms

External: N2YO · Heavens-Above · Gunter

§ Orbital elements

Epoch: 2026-09-20T04:10:33.366720Z

Period
93.85 min
Inclination
53.1610°
Eccentricity
0.0001338
Mean motion
15.34390477 rev/d
Perigee alt
461.8 km
Apogee alt
463.6 km
Semi-major
6,840.9 km
B*
4.3970e-5
RAAN
197.0140°
Arg perigee
82.9085°
Mean anomaly
277.2070°
Rev number
16,825

§ Raw data

STARLINK-303991 57951U 23148S   26263.17399730  .00001109  00000+0  43970-4 0  99902 57951  53.1610 197.0140 0001338  82.9085 277.2070 15.34390477168254

JSON: /api/v1/satellites/57951 · /tle

For live sub-satellite position, see the globe view (requires WebGL).

§ Visibility from observer

Set your observer location to see the next 7 days of passes ≥ 10°. The values pass through the URL so the page stays shareable.

No JS? Fill the form by hand. The geolocation button needs JavaScript.